When you browse on this site, cookies collect data to enhance your experience and personalize the content and advertising you see.
Visit our Privacy Policy to learn more. By continuing to use the site, you agree to this use of cookies and data.
  • In Hungary
  • List of Countries
  • For 7 days
  • Water Temperature
  • Weather Map
  • News
  • Weather Widgets
  • user-avatar
    Login

    Hourly Weather Farias Brito

    Today, 13 November, Wednesday

    Time Temperature Precipitation Wind Pressure Humidity
    00:00 +26°C° 0 mm 2 mps 725 mmHg 52%
    01:00 +25°C° 0 mm 2 mps 725 mmHg 59%
    02:00 +24°C° 0 mm 1 mps 724 mmHg 66%
    03:00 +20°C° 0 mm 0 mps 724 mmHg 73%
    04:00 +21°C° 0 mm 0 mps 725 mmHg 71%
    05:00 +23°C° 0 mm 1 mps 725 mmHg 70%
    06:00 +23°C° 0 mm 1 mps 726 mmHg 68%
    07:00 +26°C° 0 mm 1 mps 727 mmHg 56%
    08:00 +29°C° 0 mm 2 mps 727 mmHg 44%
    09:00 +34°C° 0 mm 3 mps 728 mmHg 32%
    10:00 +35°C° 0 mm 3 mps 727 mmHg 28%
    11:00 +37°C° 0 mm 3 mps 727 mmHg 24%
    12:00 +39°C° 0 mm 3 mps 726 mmHg 20%
    13:00 +40°C° 0 mm 3 mps 725 mmHg 19%
    14:00 +40°C° 0 mm 3 mps 724 mmHg 17%
    15:00 +40°C° 0 mm 3 mps 723 mmHg 16%
    16:00 +38°C° 0 mm 2 mps 723 mmHg 18%
    17:00 +35°C° 0 mm 2 mps 723 mmHg 21%
    18:00 +31°C° 0 mm 1 mps 723 mmHg 24%
    19:00 +30°C° 0 mm 1 mps 724 mmHg 26%
    20:00 +29°C° 0 mm 1 mps 724 mmHg 28%
    21:00 +28°C° 0 mm 1 mps 725 mmHg 30%
    22:00 +27°C° 0 mm 1 mps 725 mmHg 40%
    23:00 +26°C° 0 mm 2 mps 725 mmHg 51%

    Tomorrow, 14 November, Thursday

    Time Temperature Precipitation Wind Pressure Humidity
    00:00 +25°C° 0 mm 2 mps 725 mmHg 61%
    01:00 +24°C° 0 mm 1 mps 725 mmHg 70%
    02:00 +23°C° 0 mm 1 mps 725 mmHg 79%
    03:00 +20°C° 0 mm 0 mps 725 mmHg 88%
    04:00 +20°C° 0 mm 0 mps 725 mmHg 85%
    05:00 +21°C° 0 mm 0 mps 726 mmHg 81%
    06:00 +21°C° 0 mm 0 mps 726 mmHg 77%
    07:00 +26°C° 0 mm 1 mps 726 mmHg 63%
    08:00 +30°C° 0 mm 2 mps 727 mmHg 49%
    09:00 +34°C° 0 mm 3 mps 728 mmHg 34%
    10:00 +36°C° 0 mm 3 mps 727 mmHg 30%
    11:00 +38°C° 0 mm 3 mps 726 mmHg 25%
    12:00 +40°C° 0 mm 3 mps 725 mmHg 21%
    13:00 +40°C° 0 mm 2 mps 725 mmHg 20%
    14:00 +41°C° 0 mm 2 mps 724 mmHg 18%
    15:00 +41°C° 0 mm 2 mps 723 mmHg 16%
    16:00 +38°C° 0 mm 2 mps 723 mmHg 20%
    17:00 +36°C° 0 mm 2 mps 723 mmHg 23%
    18:00 +32°C° 0 mm 1 mps 723 mmHg 26%
    19:00 +31°C° 0 mm 1 mps 723 mmHg 28%
    20:00 +30°C° 0 mm 1 mps 724 mmHg 30%
    21:00 +29°C° 0 mm 1 mps 724 mmHg 32%
    22:00 +28°C° 0 mm 2 mps 725 mmHg 46%
    23:00 +27°C° 0 mm 2 mps 725 mmHg 60%

    Day after tomorrow, 15 November, Friday

    Time Temperature Precipitation Wind Pressure Humidity
    00:00 +26°C° 0 mm 2 mps 725 mmHg 74%
    01:00 +25°C° 0.1 mm 2 mps 725 mmHg 81%
    02:00 +24°C° 0.1 mm 2 mps 724 mmHg 87%
    03:00 +23°C° 0.1 mm 1 mps 724 mmHg 94%
    04:00 +23°C° 0 mm 1 mps 725 mmHg 91%
    05:00 +23°C° 0 mm 2 mps 725 mmHg 88%
    06:00 +23°C° 0 mm 2 mps 725 mmHg 84%
    07:00 +26°C° 0 mm 2 mps 726 mmHg 70%
    08:00 +29°C° 0 mm 3 mps 726 mmHg 56%
    09:00 +33°C° 0 mm 3 mps 727 mmHg 41%
    10:00 +35°C° 0 mm 3 mps 726 mmHg 36%
    11:00 +38°C° 0 mm 3 mps 725 mmHg 30%
    12:00 +40°C° 0 mm 2 mps 725 mmHg 24%
    13:00 +40°C° 0 mm 2 mps 724 mmHg 23%
    14:00 +40°C° 0 mm 2 mps 723 mmHg 21%
    15:00 +40°C° 0 mm 2 mps 722 mmHg 20%
    16:00 +37°C° 0 mm 1 mps 722 mmHg 23%
    17:00 +35°C° 0 mm 1 mps 722 mmHg 26%
    18:00 +33°C° 0 mm 1 mps 722 mmHg 30%
    19:00 +31°C° 0 mm 1 mps 722 mmHg 32%
    20:00 +30°C° 0 mm 1 mps 722 mmHg 35%
    21:00 +26°C° 0 mm 0 mps 723 mmHg 37%
    22:00 +27°C° 0 mm 1 mps 723 mmHg 49%
    23:00 +26°C° 0 mm 2 mps 723 mmHg 62%

    16 November, Saturday

    Time Temperature Precipitation Wind Pressure Humidity
    00:00 +25°C° 0 mm 2 mps 723 mmHg 74%
    01:00 +24°C° 0 mm 2 mps 722 mmHg 81%
    02:00 +23°C° 0 mm 1 mps 722 mmHg 88%
    03:00 +22°C° 0 mm 1 mps 722 mmHg 94%
    04:00 +22°C° 0 mm 1 mps 723 mmHg 92%
    05:00 +23°C° 0 mm 1 mps 723 mmHg 90%
    06:00 +23°C° 0 mm 1 mps 724 mmHg 88%
    07:00 +26°C° 0 mm 1 mps 725 mmHg 74%
    08:00 +29°C° 0 mm 2 mps 725 mmHg 60%
    09:00 +32°C° 0 mm 2 mps 725 mmHg 47%
    10:00 +35°C° 0 mm 2 mps 725 mmHg 39%
    11:00 +38°C° 0 mm 2 mps 724 mmHg 32%
    12:00 +41°C° 0 mm 2 mps 724 mmHg 24%
    13:00 +41°C° 0 mm 1 mps 723 mmHg 23%
    14:00 +41°C° 0 mm 1 mps 722 mmHg 22%
    15:00 +41°C° 0 mm 1 mps 721 mmHg 21%
    16:00 +39°C° 0 mm 1 mps 721 mmHg 25%
    17:00 +35°C° 0 mm 1 mps 721 mmHg 29%
    18:00 +33°C° 0 mm 1 mps 721 mmHg 33%
    19:00 +30°C° 0 mm 0 mps 721 mmHg 35%
    20:00 +29°C° 0 mm 0 mps 722 mmHg 38%
    21:00 +28°C° 0 mm 0 mps 722 mmHg 41%
    22:00 +28°C° 0 mm 1 mps 722 mmHg 53%
    23:00 +26°C° 0 mm 2 mps 722 mmHg 65%

    17 November, Sunday

    Time Temperature Precipitation Wind Pressure Humidity
    00:00 +25°C° 0 mm 3 mps 722 mmHg 78%
    01:00 +24°C° 0 mm 2 mps 722 mmHg 82%
    02:00 +24°C° 0 mm 2 mps 722 mmHg 86%
    03:00 +23°C° 0 mm 2 mps 722 mmHg 91%
    04:00 +23°C° 0 mm 1 mps 723 mmHg 90%
    05:00 +23°C° 0 mm 1 mps 723 mmHg 89%
    06:00 +24°C° 0 mm 1 mps 724 mmHg 88%
    07:00 +27°C° 0 mm 2 mps 724 mmHg 73%
    08:00 +29°C° 0 mm 2 mps 725 mmHg 59%
    09:00 +33°C° 0 mm 3 mps 726 mmHg 44%
    10:00 +36°C° 0 mm 3 mps 725 mmHg 38%
    11:00 +38°C° 0 mm 3 mps 725 mmHg 31%
    12:00 +40°C° 0 mm 3 mps 724 mmHg 25%
    13:00 +42°C° 0 mm 3 mps 723 mmHg 24%
    14:00 +42°C° 0 mm 3 mps 722 mmHg 22%
    15:00 +42°C° 0 mm 3 mps 721 mmHg 20%
    16:00 +39°C° 0 mm 2 mps 721 mmHg 24%
    17:00 +36°C° 0 mm 2 mps 721 mmHg 27%
    18:00 +34°C° 0 mm 2 mps 721 mmHg 30%
    19:00 +32°C° 0 mm 2 mps 722 mmHg 34%
    20:00 +30°C° 0 mm 2 mps 722 mmHg 37%
    21:00 +29°C° 0 mm 2 mps 723 mmHg 40%
    22:00 +28°C° 0 mm 2 mps 723 mmHg 51%
    23:00 +26°C° 0 mm 2 mps 723 mmHg 63%

    18 November, Monday

    Time Temperature Precipitation Wind Pressure Humidity
    00:00 +25°C° 0 mm 2 mps 724 mmHg 74%
    01:00 +24°C° 0 mm 2 mps 724 mmHg 81%
    02:00 +23°C° 0 mm 2 mps 724 mmHg 87%
    03:00 +23°C° 0 mm 1 mps 724 mmHg 94%
    04:00 +23°C° 0 mm 1 mps 724 mmHg 92%
    05:00 +23°C° 0 mm 1 mps 725 mmHg 89%
    06:00 +24°C° 0 mm 2 mps 726 mmHg 87%
    07:00 +26°C° 0 mm 2 mps 726 mmHg 74%
    08:00 +29°C° 0 mm 3 mps 727 mmHg 61%
    09:00 +33°C° 0 mm 3 mps 727 mmHg 47%
    10:00 +35°C° 0 mm 3 mps 727 mmHg 40%
    11:00 +37°C° 0 mm 3 mps 726 mmHg 33%
    12:00 +39°C° 0 mm 3 mps 726 mmHg 26%
    13:00 +40°C° 0 mm 3 mps 725 mmHg 24%
    14:00 +40°C° 0 mm 3 mps 724 mmHg 22%
    15:00 +42°C° 0 mm 3 mps 723 mmHg 21%
    16:00 +38°C° 0 mm 2 mps 723 mmHg 23%
    17:00 +36°C° 0 mm 2 mps 723 mmHg 26%
    18:00 +34°C° 0 mm 2 mps 723 mmHg 29%
    19:00 +31°C° 0 mm 1 mps 723 mmHg 32%
    20:00 +30°C° 0 mm 1 mps 724 mmHg 35%
    21:00 +29°C° 0 mm 1 mps 724 mmHg 38%
    22:00 +28°C° 0 mm 1 mps 725 mmHg 51%
    23:00 +26°C° 0 mm 2 mps 725 mmHg 63%
    Show more